Location: Borgo
(42.3939°N, 9.2791°E)
Time: 13:26:25
(UTC+00:00)

ISS - Pass Details

Date: 28 April 2021
Orbit: 417 x 422 km, 51.6° (Epoch: 15 May)

Event Time Altitude Azimuth Distance (km) Brightness Sun altitude
Exits shadow 02:15:17 21° 133° (SE) 999 -1.9 -20.6°
Drops below altitude 10° 02:17:52 10° 83° (E) 1,503 -0.2 -20.3°
Sets 02:20:17 0° 67° (ENE) 2,372 1.3 -20.0°
